Location: *
(31.2983°S, 151.4094°E)
Time: 05:27:44
(UTC+00:00)

Cosmos 2344 - Pass Details

Date: 25 August 2019
Orbit: 1261 x 2981 km, 63.3° (Epoch: 13 September)

Event Time Altitude Azimuth Distance (km) Brightness Sun altitude
Rises 17:29:14 0° 210° (SSW) 6,211 7.0 -36.8°
Reaches altitude 10° 17:33:26 10° 209° (SSW) 4,971 6.5 -35.9°
Maximum altitude 17:46:12 82° 120° (ESE) 1,848 4.3 -33.2°
Drops below altitude 10° 17:55:16 10° 32° (NNE) 3,632 6.2 -31.3°
Sets 17:57:50 0° 31° (NNE) 4,480 6.7 -30.8°
